STARLINK-6376, 57349

Orbit data source: Space-Track

STARLINK-6376, 57349 is a payload satellite owned by SpaceX/Seattle (US) in LEO that was launched on Sun, 16 Jul 2023 UTC via an FALCON 9 launch vehicle from the Air Force Eastern Test Range (AFETR). Payload-class satellites include a variety of spacecraft equipped with specific instruments for various scientific and technological missions. These include communications satellites like Starlink; space stations such as the ISS; scientific satellites like the Hubble; Earth observation satellites from companies like Planet Labs, Umbra, and HawkEye 360; GPS; miniature CubeSats for education and research; and military/defense satellites.

Loading next visibility...
Identifier
57349, 2023-099X
Orbit
LEO
Country
Flag of USUS
Related business
Manufacturer
SpaceX/Seattle
Mission
Operational Commercial Communications
Bus & Motor
STARLINK, Unknown motor
Mass
305 kg wet, ~290 kg dry
Launch date (UTC)
2023-07-16 (3 years ago)
Launch vehicle
FALCON 9
Launch site
Air Force Eastern Test Range (AFETR)
Object type
Payload
Rocket body
Debris
Shape & HBR
Box + 1 Pan, 10.1 m
Radar Cross Section
11.087 m², Large (>1 m²)

Expand to show TLE details & history
Last TLE update: 2 days ago

TLE from 2 days ago
0 STARLINK-6376
1 57349U 23099X   26171.31862341  .00002018  00000-0  82859-4 0  9993
2 57349  43.0049  29.2736 0002264 286.3521  73.7082 15.27572216162532
Epoch: 2026-06-20T07:38Z
TLE epoch observation values (Epoch: 2026-06-20T07:38:49.062Z)
Latitude
-0°
Longitude
6.03421°
Altitude
482.413 km
Speed
7.626 km/s
True Right ascension
01h 57m 05s
True Declination
0° 00' 00"
Sunlit
Object was in daylight at epoch
Visualization orbit readout
Latitude
Unknown
Longitude
Unknown
Altitude
Unknown
Speed
Unknown
Apparent Right ascension
Unknown
Apparent Declination
Unknown
Sunlit
N/A
Visualization observer readout
Local Sidereal Time
21:29:40
Azimuth
Unknown
Elevation
Unknown
Doppler factor
Unknown
Orbital elements
Apogee altitude
486.571 km
Perigee altitude
483.463 km
Semi-major axis
6,863.154 km
Eccentricity
0.00023
Inclination
43.0049°
RAAN
29.2736°
Arg. of periapsis
286.3521°
True anomaly
73.7331°
Mean anomaly
73.7082°
Eccentric anomaly
73.72065°
Mean motion
3.81731 °/min
Orbital period
94.31 mins
BSTAR
0.000082859
Loading maneuver chart data...
Computing Atmospheric mass density...
Loading historical data...
Loading historical data...
Loading historical data...
Loading historical data...
Loading historical data...
Loading historical data...
Loading historical data...

Documentation

Showing up to 5 results
|